User: anonymous   Login
Location: Unspecified
(0.0000°N, 0.0000°E)
Time: 21:41:35
(UTC+02:00)
Language:

YAOGAN 1 - Orbit

View from above orbital plane
View from above orbital plane
View from above satellite
View from above satellite

Ground track
Ground track

The orbit data is extracted from the following two-line orbital elements,

1 29092U 06015A   14298.11192001  .00001418  00000-0  18563-3 0  1984
2 29092 097.9876 293.2434 0001537 104.5483 302.0046 14.81971586459236
Epoch (UTC): 25 October 2014 02:41:09
Eccentricity: 0.0001537
inclination: 97.9876°
perigee height: 622 km
apogee height: 624 km
right ascension of ascending node: 293.2434°
argument of perigee: 104.5483°
revolutions per day: 14.81971586
mean anomaly at epoch: 302.0046°
orbit number at epoch: 45923

The dashed part of the orbit path shows where the satellite is in the earth's shadow,  

DLR